When you browse on this site, cookies collect data to enhance your experience and personalize the content and advertising you see.
Visit our Privacy Policy to learn more. By continuing to use the site, you agree to this use of cookies and data.
  • In Hungary
  • List of Countries
  • For 7 days
  • Water Temperature
  • Weather Map
  • News
  • Weather Widgets
  • user-avatar
    Login

    Hourly Weather Vederniki

    Today, 22 February, Saturday

    Time Temperature Precipitation Wind Pressure Humidity
    00:00 -1°C° 0.1 mm 2 mps 752 mmHg 98%
    01:00 -1°C° 0.1 mm 2 mps 752 mmHg 98%
    02:00 -1°C° 0.1 mm 3 mps 752 mmHg 98%
    03:00 -1°C° 0 mm 3 mps 753 mmHg 98%
    04:00 -1°C° 0 mm 3 mps 752 mmHg 98%
    05:00 -1°C° 0 mm 3 mps 752 mmHg 98%
    06:00 -1°C° 0 mm 3 mps 752 mmHg 97%
    07:00 -1°C° 0 mm 3 mps 753 mmHg 97%
    08:00 -1°C° 0 mm 3 mps 753 mmHg 97%
    09:00 -1°C° 0 mm 3 mps 754 mmHg 97%
    10:00 -1°C° 0 mm 3 mps 754 mmHg 98%
    11:00 -1°C° 0 mm 3 mps 754 mmHg 98%
    12:00 -1°C° 0 mm 3 mps 754 mmHg 98%
    13:00 -1°C° 0 mm 3 mps 754 mmHg 97%
    14:00 -2°C° 0 mm 4 mps 754 mmHg 96%
    15:00 -2°C° 0 mm 4 mps 754 mmHg 95%
    16:00 -2°C° 0 mm 4 mps 754 mmHg 94%
    17:00 -2°C° 0 mm 4 mps 753 mmHg 93%
    18:00 -2°C° 0 mm 3 mps 753 mmHg 93%
    19:00 -3°C° 0 mm 4 mps 753 mmHg 92%
    20:00 -4°C° 0 mm 4 mps 753 mmHg 91%
    21:00 -4°C° 0 mm 4 mps 753 mmHg 91%
    22:00 -4°C° 0 mm 4 mps 752 mmHg 90%
    23:00 -4°C° 0 mm 4 mps 752 mmHg 89%

    Tomorrow, 23 February, Sunday

    Time Temperature Precipitation Wind Pressure Humidity
    00:00 -4°C° 0 mm 4 mps 751 mmHg 88%
    01:00 -5°C° 0 mm 5 mps 751 mmHg 89%
    02:00 -5°C° 0 mm 6 mps 751 mmHg 90%
    03:00 -5°C° 0 mm 6 mps 750 mmHg 91%
    04:00 -7°C° 0 mm 7 mps 749 mmHg 92%
    05:00 -7°C° 0 mm 7 mps 748 mmHg 92%
    06:00 -8°C° 0 mm 7 mps 747 mmHg 93%
    07:00 -8°C° 0 mm 8 mps 747 mmHg 92%
    08:00 -8°C° 0 mm 8 mps 747 mmHg 90%
    09:00 -8°C° 0 mm 8 mps 746 mmHg 89%
    10:00 -8°C° 0 mm 8 mps 745 mmHg 90%
    11:00 -9°C° 0 mm 9 mps 744 mmHg 90%
    12:00 -9°C° 0 mm 9 mps 743 mmHg 90%
    13:00 -8°C° 0.1 mm 9 mps 743 mmHg 91%
    14:00 -8°C° 0.1 mm 9 mps 742 mmHg 92%
    15:00 -8°C° 0.1 mm 9 mps 741 mmHg 93%
    16:00 -8°C° 0.3 mm 9 mps 740 mmHg 93%
    17:00 -8°C° 0.3 mm 9 mps 739 mmHg 93%
    18:00 -8°C° 0.3 mm 9 mps 738 mmHg 93%
    19:00 -8°C° 0.3 mm 9 mps 737 mmHg 93%
    20:00 -6°C° 0.3 mm 9 mps 737 mmHg 93%
    21:00 -6°C° 0.3 mm 9 mps 736 mmHg 93%
    22:00 -6°C° 0.3 mm 9 mps 735 mmHg 93%
    23:00 -6°C° 0.3 mm 9 mps 735 mmHg 93%

    Day after tomorrow, 24 February, Monday

    Time Temperature Precipitation Wind Pressure Humidity
    00:00 -6°C° 0.3 mm 9 mps 734 mmHg 93%
    01:00 -6°C° 0.3 mm 9 mps 733 mmHg 93%
    02:00 -6°C° 0.3 mm 8 mps 732 mmHg 94%
    03:00 -6°C° 0.3 mm 8 mps 732 mmHg 94%
    04:00 -6°C° 0.4 mm 8 mps 731 mmHg 94%
    05:00 -6°C° 0.4 mm 8 mps 730 mmHg 95%
    06:00 -6°C° 0.4 mm 7 mps 730 mmHg 95%
    07:00 -4°C° 0.4 mm 7 mps 730 mmHg 95%
    08:00 -4°C° 0.4 mm 7 mps 729 mmHg 96%
    09:00 -3°C° 0.4 mm 6 mps 729 mmHg 96%
    10:00 -3°C° 0.2 mm 6 mps 729 mmHg 96%
    11:00 -3°C° 0.2 mm 6 mps 729 mmHg 97%
    12:00 -2°C° 0.2 mm 5 mps 730 mmHg 98%
    13:00 -2°C° 0.2 mm 5 mps 730 mmHg 95%
    14:00 -2°C° 0.2 mm 5 mps 730 mmHg 92%
    15:00 -2°C° 0.2 mm 4 mps 731 mmHg 90%
    16:00 -2°C° 0 mm 4 mps 731 mmHg 89%
    17:00 -3°C° 0 mm 4 mps 732 mmHg 89%
    18:00 -3°C° 0 mm 4 mps 732 mmHg 88%
    19:00 -3°C° 0 mm 4 mps 733 mmHg 90%
    20:00 -3°C° 0 mm 4 mps 733 mmHg 92%
    21:00 -3°C° 0 mm 4 mps 734 mmHg 93%
    22:00 -3°C° 0 mm 4 mps 734 mmHg 93%
    23:00 -4°C° 0 mm 4 mps 734 mmHg 93%

    25 February, Tuesday

    Time Temperature Precipitation Wind Pressure Humidity
    00:00 -4°C° 0 mm 4 mps 734 mmHg 94%
    01:00 -4°C° 0 mm 4 mps 734 mmHg 94%
    02:00 -4°C° 0 mm 4 mps 734 mmHg 94%
    03:00 -5°C° 0 mm 4 mps 735 mmHg 94%
    04:00 -5°C° 0 mm 4 mps 734 mmHg 95%
    05:00 -5°C° 0 mm 4 mps 734 mmHg 95%
    06:00 -5°C° 0 mm 4 mps 734 mmHg 96%
    07:00 -4°C° 0.1 mm 4 mps 734 mmHg 96%
    08:00 -4°C° 0.1 mm 3 mps 734 mmHg 95%
    09:00 -4°C° 0.1 mm 3 mps 733 mmHg 95%
    10:00 -2°C° 0.6 mm 3 mps 733 mmHg 96%
    11:00 -3°C° 0.6 mm 4 mps 733 mmHg 97%
    12:00 -3°C° 0.6 mm 4 mps 732 mmHg 99%
    13:00 -2°C° 1.1 mm 4 mps 732 mmHg 99%
    14:00 -1°C° 1.1 mm 3 mps 731 mmHg 99%
    15:00 -1°C° 1.1 mm 3 mps 731 mmHg 99%
    16:00 -1°C° 0.9 mm 3 mps 731 mmHg 99%
    17:00 -1°C° 0.9 mm 3 mps 731 mmHg 98%
    18:00 -1°C° 0.9 mm 2 mps 731 mmHg 98%
    19:00 -1°C° 0.6 mm 3 mps 731 mmHg 98%
    20:00 -3°C° 0.6 mm 4 mps 731 mmHg 97%
    21:00 -4°C° 0.6 mm 5 mps 732 mmHg 96%
    22:00 -5°C° 0.1 mm 5 mps 732 mmHg 95%
    23:00 -5°C° 0.1 mm 6 mps 732 mmHg 93%

    26 February, Wednesday

    Time Temperature Precipitation Wind Pressure Humidity
    00:00 -6°C° 0.1 mm 6 mps 733 mmHg 91%
    01:00 -7°C° 0 mm 5 mps 733 mmHg 91%
    02:00 -10°C° 0 mm 5 mps 734 mmHg 91%
    03:00 -11°C° 0 mm 5 mps 734 mmHg 91%
    04:00 -11°C° 0 mm 4 mps 735 mmHg 91%
    05:00 -12°C° 0 mm 4 mps 735 mmHg 92%
    06:00 -12°C° 0 mm 3 mps 736 mmHg 92%
    07:00 -12°C° 0 mm 3 mps 736 mmHg 92%
    08:00 -10°C° 0 mm 3 mps 737 mmHg 91%
    09:00 -8°C° 0 mm 2 mps 737 mmHg 91%
    10:00 -7°C° 0 mm 2 mps 737 mmHg 90%
    11:00 -6°C° 0 mm 2 mps 737 mmHg 88%
    12:00 -5°C° 0 mm 3 mps 738 mmHg 87%
    13:00 -5°C° 0 mm 3 mps 737 mmHg 87%
    14:00 -5°C° 0 mm 3 mps 737 mmHg 87%
    15:00 -5°C° 0 mm 3 mps 737 mmHg 87%
    16:00 -7°C° 0 mm 4 mps 737 mmHg 87%
    17:00 -8°C° 0 mm 4 mps 737 mmHg 86%
    18:00 -10°C° 0 mm 5 mps 736 mmHg 86%
    19:00 -8°C° 0 mm 5 mps 736 mmHg 88%
    20:00 -7°C° 0 mm 5 mps 736 mmHg 90%
    21:00 -6°C° 0 mm 6 mps 736 mmHg 92%
    22:00 -5°C° 0.2 mm 6 mps 736 mmHg 93%
    23:00 -6°C° 0.2 mm 7 mps 735 mmHg 94%

    27 February, Thursday

    Time Temperature Precipitation Wind Pressure Humidity
    00:00 -4°C° 0.2 mm 7 mps 735 mmHg 96%
    01:00 -3°C° 0.4 mm 7 mps 735 mmHg 97%
    02:00 -2°C° 0.4 mm 6 mps 735 mmHg 98%
    03:00 -2°C° 0.4 mm 6 mps 735 mmHg 99%
    04:00 -1°C° 0.1 mm 5 mps 735 mmHg 99%
    05:00 -1°C° 0.1 mm 5 mps 736 mmHg 98%
    06:00 -1°C° 0.1 mm 5 mps 736 mmHg 98%
    07:00 -1°C° 0 mm 4 mps 736 mmHg 98%
    08:00 -1°C° 0 mm 4 mps 737 mmHg 97%
    09:00 -1°C° 0 mm 4 mps 738 mmHg 97%
    10:00 -1°C° 0 mm 4 mps 738 mmHg 98%
    11:00 0°C° 0 mm 3 mps 739 mmHg 99%
    12:00 0°C° 0 mm 3 mps 739 mmHg 99%
    13:00 0°C° 0 mm 3 mps 740 mmHg 99%
    14:00 0°C° 0 mm 3 mps 740 mmHg 99%
    15:00 0°C° 0 mm 3 mps 740 mmHg 99%
    16:00 +1°C° 0 mm 2 mps 740 mmHg 99%
    17:00 +1°C° 0 mm 2 mps 741 mmHg 98%
    18:00 +1°C° 0 mm 2 mps 741 mmHg 98%
    19:00 +1°C° 0.1 mm 2 mps 741 mmHg 98%
    20:00 +1°C° 0.1 mm 2 mps 741 mmHg 98%
    21:00 0°C° 0.1 mm 3 mps 741 mmHg 98%
    22:00 -1°C° 0.5 mm 3 mps 741 mmHg 98%
    23:00 -2°C° 0.5 mm 4 mps 740 mmHg 98%
    Show more